Regional Weather Roundup
Issued by NWS

Home | Current Version | Previous Version | Graphics & Text | Print | Product List | Glossary Off
Versions: 1 2 3 4 5 6 7 8 9 10 11 12 13 14 15 16 17 18 19 20 21 22 23 24 25 26 27 28 29 30 31 32 33 34 35 36 37 38 39 40 41 42 43 44 45 46 47 48 49 50

000
ASUS43 KMKX 271121
RWRWI

WISCONSIN REGIONAL WEATHER ROUNDUP
NATIONAL WEATHER SERVICE MILWAUKEE/SULLIVAN WI
500 AM CST FRI FEB 27 2015

NOTE: "FAIR" INDICATES FEW OR NO CLOUDS BELOW 12,000 FEET WITH NO
SIGNIFICANT WEATHER AND/OR OBSTRUCTIONS TO VISIBILITY.

WIZ001-002-006>008-014>016-023>028-271200-
NORTHWEST WISCONSIN

CITY           SKY/WX    TMP DP  RH WIND       PRES   REMARKS
SUPERIOR ARPT  PTCLDY    -8 -13  75 SW7       30.47S WCI -22
ASHLAND        CLEAR     -6 -14  68 SW8       30.43R WCI -21
HAYWARD        CLEAR    -18 -25  70 CALM      30.42R
SIREN          CLEAR     -8 -15  74 CALM      30.47R
CUMBERLAND     FAIR      -8 -15  71 W3        30.43R
RICE LAKE      FAIR      -9 -15  75 CALM      30.47R
CHETEK         FAIR     -12 -16  83 CALM      30.47R
LADYSMITH      CLEAR    -17 -23  75 CALM      30.43R
EAU CLAIRE     CLEAR     -8 -15  71 SW5       30.48R WCI -19
MENOMONIE      CLEAR     -4 -12  71 W5        30.50R WCI -15
NEW RICHMOND   CLEAR    -11 -16  78 CALM      30.49R
OSCEOLA        CLEAR    -11 -16  75 CALM      30.52S
$$

WIZ003>005-009-010-017-018-271200-
NORTH CENTRAL WISCONSIN

CITY           SKY/WX    TMP DP  RH WIND       PRES   REMARKS
MANITOWISH WTR CLEAR    -23 -29  72 CALM      30.32S
ARBOR VITAE    PTCLDY   -16 -22  72 CALM      30.33R
WOODRUFF       PTCLDY   -16 -22  72 CALM      30.33R
RHINELANDER    PTCLDY   -16 -22  74 W7        30.34R WCI -32
EAGLE RIVER    PTCLDY   -21 -29  69 CALM      30.32R
LAND O LAKES   PTCLDY   -29 -36  67 CALM      30.31R
PHILLIPS       CLEAR    -20 -26  74 CALM      30.37R
TOMAHAWK       PTCLDY   -21 -27  72 CALM      30.37S
MEDFORD        CLEAR     -9 -14  78 CALM      30.38R
MERRILL        PTCLDY   -19 -25  74 CALM      30.39R
$$

WIZ029-030-035-036-043>047-271200-
CENTRAL WISCONSIN

CITY           SKY/WX    TMP DP  RH WIND       PRES   REMARKS
WAUSAU         CLEAR     -6 -13  71 NW8       30.40R WCI -21
MOSINEE        CLEAR     -6 -13  71 NW6       30.41S WCI -18
MARSHFIELD     CLEAR    -10 -16  74 NW5       30.42R WCI -22
STEVENS POINT  CLEAR    -17 -22  77 CALM      30.44R
WAUPACA        CLEAR     -1 -11  62 W3        30.46R
WAUTOMA        CLEAR    -10 -16  75 CALM      30.48R
WISC RAPIDS    CLEAR    -12 -18  74 CALM      30.46R
CAMP DOUGLAS   CLEAR     -5 -11  76 W5        30.48R WCI -16
$$

WIZ011>013-019>022-031-037>040-048>050-271200-
NORTHEAST WISCONSIN

CITY           SKY/WX    TMP DP  RH WIND       PRES   REMARKS
ANTIGO         PTCLDY   -10 -16  77 W7        30.36R WCI -26
SHAWANO        CLEAR     -3 -11  67 W5        30.45R WCI -13
OCONTO         CLEAR    -11 -16  80 W3        30.44S
STURGEON BAY   CLEAR     -2 -11  65 W3        30.44R
GREEN BAY      CLEAR     -1  -8  72 W9        30.45R WCI -16
MANITOWOC      CLEAR      0  -8  69 W5        30.46R WCI -10
APPLETON       NOT AVBL
CLINTONVILLE   CLEAR     -4 -13  65 NW6       30.44S WCI -16
OSHKOSH        CLEAR     -2 -11  65 W6        30.45R WCI -14
$$

WIZ032>034-041-042-053>061-271200-
SOUTHWEST WISCONSIN

CITY           SKY/WX    TMP DP  RH WIND       PRES   REMARKS
LA CROSSE      CLEAR     -7 -13  75 CALM      30.53R
SPARTA         CLEAR    -18 -24  73 CALM      30.51R
VIROQUA        CLEAR     -8 -11  84 W5        30.45R WCI -19
BOSCOBEL       CLEAR    -15 -20  78 SW5       30.55R WCI -27
PRAIRIE DU CHI FAIR     -13 -19  74 CALM      30.56R
PLATTEVILLE    PTCLDY   -10 -14  80 W5        30.49S WCI -21
$$

WIZ056-057-062-063-064-067-068-271200-
SOUTH CENTRAL WISCONSIN

CITY           SKY/WX    TMP DP  RH WIND       PRES   REMARKS
REEDSBURG      CLEAR    -10 -15  80 CALM      30.48R
BARABOO/DELLS  CLEAR     -8 -13  77 CALM      30.47R
LONE ROCK      CLEAR    -11 -16  78 W6        30.52R WCI -25
MINERAL POINT  PTCLDY    -8 -13  77 NW3       30.46R
MADISON        CLEAR     -3 -10  72 W3        30.48R
MIDDLETON      CLEAR     -1 -10  66 W3        30.48R
WATERTOWN      CLEAR     -8 -14  78 CALM      30.47R
MONROE         CLEAR     -4  -8  84 W13       30.45S WCI -23
JANESVILLE     CLEAR     -9 -17  70 CALM      30.48R
$$

WIZ051-052-058>065-066-070>072-271200-
SOUTHEAST WISCONSIN

CITY           SKY/WX    TMP DP  RH WIND       PRES   REMARKS
MILWAUKEE      CLEAR      2  -9  60 W8        30.47R WCI -12
WAUKESHA       CLEAR     -4  -9  77 W7        30.46R WCI -18
MILWAUKEE/TIMM CLEAR      0  -9  65 CALM      30.48R
RACINE         CLEAR     -2 -10  69 W9        30.49R WCI -18
BURLINGTON     NOT AVBL
KENOSHA        CLEAR     -8 -13  78 NW7       30.47R WCI -23
FOND DU LAC    CLEAR     -6 -12  75 S3        30.46R
SHEBOYGAN      CLEAR     -1  -9  68 W6        30.46R WCI -13
WEST BEND      CLEAR      0  -9  65 W5        30.45R WCI -10
JUNEAU         CLEAR     -4 -11  73 CALM      30.47R
$$

LSZ147-162-271200-
LAKE SUPERIOR

STATION/POSITION TIME  TEMP    WIND        PRES    WAVE
                       AIR SEA DIR/SP/G            HT/PER
                 (UTC) (F)     (DEG/KT/KT) (MB)    (FT/S)
DEVILS ISLAND    1100    4     270/ 12/ 13 1031.8R
PORT WING        1040   -4     190/  7/  8 1030.8R
SAXON HARBOR     1000   -4     190/  5/  9 1030.1S
$$

LMZ867-665-643>646-271200-
LAKE MICHIGAN

STATION/POSITION TIME  TEMP    WIND        PRES    WAVE
                       AIR SEA DIR/SP/G            HT/PER
                 (UTC) (F)     (DEG/KT/KT) (MB)    (FT/S)
NORTHPORT PIER   1027    0     270/  5/  9 1029.8R
SISTER BAY       0958   -2        CALM       N/A
KEWAUNEE LAKESHO 1000   -2     300/  6/  7 1029.5R
SHEBOYGAN LAKESH 1100    3     280/  9/ 11 1033.5R
PORT WASHINGTON  1040    2     290/  7/ 10 1032.5R
MILWAUKEE LAKESH 1100    3     300/ 10/ 11   N/A
KENOSHA   LAKESH 1100    0     290/ 10/ 15 1031.5S
$$

TC  - TEMPERATURE IN CELSIUS
VSB - VISIBILITY IN STATUTE MILES
WCI - WIND CHILL INDEX
HX  - HEAT INDEX



USA.gov is the U.S. government's official web portal to all federal, state and local government web resources and services.